When you browse on this site, cookies collect data to enhance your experience and personalize the content and advertising you see.
Visit our Privacy Policy to learn more. By continuing to use the site, you agree to this use of cookies and data.
  • In United Kingdom
  • List of Countries
  • For 7 days
  • Water Temperature
  • Weather Map
  • Weather Widgets
  • user-avatar
    Login

    Hourly Weather Balho

    Today, 13 November, Wednesday

    Time Temperature Precipitation Wind Pressure Humidity
    00:00 +27°C° 0 mm 4 mps 736 mmHg 61%
    01:00 +27°C° 0 mm 3 mps 736 mmHg 63%
    02:00 +26°C° 0 mm 3 mps 736 mmHg 66%
    03:00 +26°C° 0 mm 3 mps 735 mmHg 69%
    04:00 +26°C° 0 mm 2 mps 736 mmHg 71%
    05:00 +25°C° 0 mm 2 mps 736 mmHg 72%
    06:00 +25°C° 0 mm 2 mps 737 mmHg 74%
    07:00 +27°C° 0 mm 2 mps 737 mmHg 65%
    08:00 +28°C° 0 mm 3 mps 737 mmHg 56%
    09:00 +30°C° 0 mm 3 mps 738 mmHg 47%
    10:00 +33°C° 0 mm 4 mps 737 mmHg 41%
    11:00 +34°C° 0 mm 5 mps 737 mmHg 36%
    12:00 +36°C° 0 mm 5 mps 737 mmHg 30%
    13:00 +36°C° 0 mm 6 mps 736 mmHg 29%
    14:00 +36°C° 0 mm 6 mps 735 mmHg 28%
    15:00 +38°C° 0 mm 7 mps 734 mmHg 28%
    16:00 +35°C° 0 mm 7 mps 735 mmHg 31%
    17:00 +34°C° 0 mm 6 mps 735 mmHg 35%
    18:00 +32°C° 0 mm 6 mps 735 mmHg 39%
    19:00 +30°C° 0 mm 5 mps 736 mmHg 42%
    20:00 +30°C° 0 mm 4 mps 736 mmHg 46%
    21:00 +29°C° 0 mm 3 mps 736 mmHg 49%
    22:00 +28°C° 0 mm 3 mps 736 mmHg 54%
    23:00 +28°C° 0 mm 3 mps 736 mmHg 59%

    Tomorrow, 14 November, Thursday

    Time Temperature Precipitation Wind Pressure Humidity
    00:00 +27°C° 0 mm 3 mps 736 mmHg 64%
    01:00 +26°C° 0 mm 3 mps 736 mmHg 67%
    02:00 +26°C° 0 mm 2 mps 736 mmHg 71%
    03:00 +26°C° 0 mm 2 mps 735 mmHg 74%
    04:00 +25°C° 0 mm 2 mps 736 mmHg 77%
    05:00 +25°C° 0 mm 2 mps 736 mmHg 79%
    06:00 +25°C° 0 mm 2 mps 737 mmHg 82%
    07:00 +27°C° 0 mm 2 mps 737 mmHg 71%
    08:00 +28°C° 0 mm 3 mps 738 mmHg 61%
    09:00 +30°C° 0 mm 4 mps 738 mmHg 51%
    10:00 +33°C° 0 mm 4 mps 738 mmHg 45%
    11:00 +34°C° 0 mm 4 mps 737 mmHg 38%
    12:00 +36°C° 0 mm 4 mps 736 mmHg 31%
    13:00 +36°C° 0 mm 5 mps 736 mmHg 30%
    14:00 +38°C° 0 mm 6 mps 735 mmHg 29%
    15:00 +38°C° 0 mm 7 mps 735 mmHg 28%
    16:00 +35°C° 0 mm 7 mps 735 mmHg 33%
    17:00 +34°C° 0 mm 6 mps 735 mmHg 38%
    18:00 +32°C° 0 mm 6 mps 735 mmHg 43%
    19:00 +30°C° 0 mm 5 mps 736 mmHg 46%
    20:00 +29°C° 0 mm 4 mps 736 mmHg 50%
    21:00 +29°C° 0 mm 3 mps 736 mmHg 53%
    22:00 +28°C° 0 mm 3 mps 736 mmHg 56%
    23:00 +28°C° 0 mm 3 mps 736 mmHg 58%

    Day after tomorrow, 15 November, Friday

    Time Temperature Precipitation Wind Pressure Humidity
    00:00 +27°C° 0 mm 3 mps 736 mmHg 61%
    01:00 +27°C° 0 mm 3 mps 736 mmHg 65%
    02:00 +26°C° 0 mm 3 mps 735 mmHg 69%
    03:00 +26°C° 0 mm 2 mps 735 mmHg 74%
    04:00 +25°C° 0 mm 2 mps 735 mmHg 77%
    05:00 +25°C° 0 mm 2 mps 736 mmHg 80%
    06:00 +25°C° 0 mm 2 mps 736 mmHg 83%
    07:00 +27°C° 0 mm 2 mps 737 mmHg 73%
    08:00 +28°C° 0 mm 3 mps 737 mmHg 63%
    09:00 +30°C° 0 mm 4 mps 738 mmHg 53%
    10:00 +33°C° 0 mm 4 mps 737 mmHg 46%
    11:00 +34°C° 0 mm 5 mps 737 mmHg 39%
    12:00 +36°C° 0 mm 5 mps 736 mmHg 32%
    13:00 +36°C° 0 mm 6 mps 735 mmHg 30%
    14:00 +38°C° 0 mm 6 mps 735 mmHg 29%
    15:00 +38°C° 0 mm 7 mps 734 mmHg 27%
    16:00 +35°C° 0 mm 7 mps 734 mmHg 32%
    17:00 +34°C° 0 mm 6 mps 734 mmHg 37%
    18:00 +32°C° 0 mm 6 mps 735 mmHg 42%
    19:00 +30°C° 0 mm 5 mps 735 mmHg 46%
    20:00 +29°C° 0 mm 5 mps 735 mmHg 49%
    21:00 +28°C° 0 mm 4 mps 736 mmHg 53%
    22:00 +27°C° 0 mm 4 mps 735 mmHg 58%
    23:00 +27°C° 0 mm 4 mps 735 mmHg 64%

    16 November, Saturday

    Time Temperature Precipitation Wind Pressure Humidity
    00:00 +26°C° 0 mm 4 mps 735 mmHg 69%
    01:00 +26°C° 0 mm 3 mps 735 mmHg 72%
    02:00 +26°C° 0 mm 3 mps 735 mmHg 74%
    03:00 +25°C° 0 mm 3 mps 734 mmHg 77%
    04:00 +25°C° 0 mm 2 mps 735 mmHg 79%
    05:00 +25°C° 0 mm 2 mps 735 mmHg 81%
    06:00 +24°C° 0 mm 2 mps 736 mmHg 83%
    07:00 +26°C° 0 mm 2 mps 736 mmHg 74%
    08:00 +28°C° 0 mm 2 mps 737 mmHg 64%
    09:00 +30°C° 0 mm 3 mps 737 mmHg 55%
    10:00 +31°C° 0 mm 3 mps 736 mmHg 48%
    11:00 +34°C° 0 mm 4 mps 736 mmHg 41%
    12:00 +36°C° 0 mm 4 mps 735 mmHg 35%
    13:00 +36°C° 0 mm 5 mps 735 mmHg 35%
    14:00 +36°C° 0 mm 6 mps 734 mmHg 34%
    15:00 +36°C° 0 mm 7 mps 734 mmHg 34%
    16:00 +35°C° 0 mm 7 mps 734 mmHg 40%
    17:00 +33°C° 0 mm 7 mps 734 mmHg 47%
    18:00 +30°C° 0 mm 6 mps 734 mmHg 53%
    19:00 +29°C° 0 mm 6 mps 735 mmHg 57%
    20:00 +28°C° 0 mm 5 mps 735 mmHg 62%
    21:00 +28°C° 0 mm 5 mps 735 mmHg 67%
    22:00 +27°C° 0 mm 4 mps 735 mmHg 69%
    23:00 +27°C° 0 mm 4 mps 735 mmHg 71%

    17 November, Sunday

    Time Temperature Precipitation Wind Pressure Humidity
    00:00 +26°C° 0 mm 3 mps 735 mmHg 72%
    01:00 +26°C° 0 mm 3 mps 735 mmHg 74%
    02:00 +26°C° 0 mm 3 mps 735 mmHg 76%
    03:00 +26°C° 0 mm 3 mps 735 mmHg 78%
    04:00 +25°C° 0 mm 3 mps 735 mmHg 79%
    05:00 +25°C° 0 mm 3 mps 735 mmHg 80%
    06:00 +25°C° 0 mm 2 mps 736 mmHg 81%
    07:00 +27°C° 0 mm 3 mps 736 mmHg 74%
    08:00 +28°C° 0 mm 3 mps 737 mmHg 66%
    09:00 +30°C° 0 mm 4 mps 737 mmHg 58%
    10:00 +32°C° 0 mm 5 mps 737 mmHg 50%
    11:00 +34°C° 0 mm 6 mps 736 mmHg 42%
    12:00 +35°C° 0 mm 6 mps 736 mmHg 35%
    13:00 +36°C° 0 mm 7 mps 735 mmHg 34%
    14:00 +36°C° 0 mm 7 mps 735 mmHg 33%
    15:00 +36°C° 0 mm 7 mps 735 mmHg 33%
    16:00 +34°C° 0 mm 7 mps 735 mmHg 39%
    17:00 +32°C° 0 mm 6 mps 735 mmHg 44%
    18:00 +30°C° 0 mm 6 mps 735 mmHg 50%
    19:00 +29°C° 0 mm 5 mps 735 mmHg 53%
    20:00 +28°C° 0 mm 4 mps 736 mmHg 56%
    21:00 +27°C° 0 mm 3 mps 736 mmHg 59%
    22:00 +27°C° 0 mm 3 mps 736 mmHg 64%
    23:00 +26°C° 0 mm 3 mps 736 mmHg 68%

    18 November, Monday

    Time Temperature Precipitation Wind Pressure Humidity
    00:00 +26°C° 0 mm 3 mps 736 mmHg 72%
    01:00 +25°C° 0 mm 3 mps 736 mmHg 74%
    02:00 +25°C° 0 mm 2 mps 735 mmHg 77%
    03:00 +25°C° 0 mm 2 mps 735 mmHg 79%
    04:00 +24°C° 0 mm 2 mps 735 mmHg 81%
    05:00 +24°C° 0 mm 2 mps 736 mmHg 82%
    06:00 +24°C° 0 mm 1 mps 736 mmHg 84%
    07:00 +26°C° 0 mm 2 mps 737 mmHg 75%
    08:00 +27°C° 0 mm 2 mps 737 mmHg 66%
    09:00 +29°C° 0 mm 3 mps 737 mmHg 57%
    10:00 +31°C° 0 mm 3 mps 737 mmHg 49%
    11:00 +34°C° 0 mm 3 mps 736 mmHg 42%
    12:00 +36°C° 0 mm 3 mps 736 mmHg 35%
    13:00 +36°C° 0 mm 4 mps 735 mmHg 34%
    14:00 +36°C° 0 mm 5 mps 735 mmHg 34%
    15:00 +38°C° 0 mm 6 mps 734 mmHg 33%
    16:00 +35°C° 0 mm 6 mps 735 mmHg 40%
    17:00 +33°C° 0 mm 6 mps 735 mmHg 48%
    18:00 +32°C° 0 mm 6 mps 735 mmHg 56%
    19:00 +30°C° 0 mm 5 mps 735 mmHg 61%
    20:00 +29°C° 0 mm 5 mps 736 mmHg 67%
    21:00 +28°C° 0 mm 4 mps 736 mmHg 73%
    22:00 +28°C° 0 mm 3 mps 736 mmHg 75%
    23:00 +27°C° 0 mm 3 mps 736 mmHg 77%
    Show more